[[{"header":{"parameterUnit":"m.s-1","parameterCategory":1,"la1":30.2991,"la2":30.254,"lo1":-89.0895,"lo2":-89.0444,"dy":0.0017,"dx":0.0017,"nx":28,"ny":28,"refTime":"2025-07-04T09:00:00:Z","depth":0,"parameterNumber":2,"parameterNumberName":"U-component_of_WINDS"},"data":[0,0,0,0,0,0,0,0,0,0,0,0,0,0,0,0,0,0,0,0,0,0,0,0,0,0,0,0,0,0,0,0,0,0,0,0,0,0,0,0,0,0,0,0,0,0,0,0,0,0,0,0,0,0,0,0,0,0,-1.2491,-1.2492,0,-1.2582,-1.2583,-1.2584,-1.2557,-1.2555,-1.2554,-1.2552,-1.2645,-1.2649,-1.2653,0,0,0,0,0,0,0,0,0,0,0,0,0,-1.2295,-1.2299,-1.2491,-1.2492,-1.2493,-1.2581,-1.2583,-1.2584,-1.2558,-1.2555,-1.2553,-1.2551,-1.2643,-1.2648,-1.2653,0,0,0,0,0,0,0,0,0,0,0,0,0,-1.2382,-1.23,-1.2491,-1.2491,-1.2491,-1.2581,-1.2583,-1.2584,-1.2558,-1.2555,-1.2552,-1.255,-1.2642,-1.2648,-1.2654,-1.2749,0,0,-1.2673,-1.2676,0,0,0,0,0,0,0,0,-1.2377,-1.2389,-1.2489,-1.2491,-1.2492,-1.2555,-1.2548,-1.264,-1.2559,-1.2533,-1.2552,-1.2548,-1.2617,-1.2625,-1.2649,-1.2754,-1.2758,-1.2674,-1.2678,-1.2681,-1.2682,0,0,0,0,0,0,0,-1.2371,-1.2385,-1.2527,-1.2491,-1.2492,-1.2486,-1.2495,-1.2565,-1.259,-1.2535,-1.2533,-1.2544,-1.2617,-1.2643,-1.2651,-1.2759,-1.2674,-1.2679,-1.2683,-1.2686,-1.2948,-1.2951,0,0,0,0,0,0,-1.2364,-1.2381,-1.2524,-1.2529,-1.2427,-1.2492,-1.2502,-1.2538,-1.2589,-1.2594,-1.2547,-1.2543,-1.2633,-1.2643,-1.2654,-1.277,-1.2681,-1.2686,-1.269,-1.2945,-1.2949,-1.2952,0,0,0,0,0,0,-1.236,-1.2377,-1.252,-1.2455,-1.2472,-1.2498,-1.2538,-1.2541,-1.2566,-1.2598,-1.2602,-1.2568,-1.2631,-1.2645,-1.2726,-1.2773,-1.2689,-1.2695,-1.2941,-1.2946,-1.295,-1.3002,0,0,0,0,0,0,-1.2355,-1.2376,-1.2412,-1.2456,-1.2476,-1.2591,-1.2541,-1.2545,-1.2577,-1.2573,-1.2619,-1.2624,-1.263,-1.2717,-1.2732,-1.278,-1.27,-1.2937,-1.2943,-1.2949,-1.2996,-1.3008,-1.3018,0,0,0,0,0,-1.2348,-1.2423,-1.2414,-1.2432,-1.2522,-1.2594,-1.2605,-1.2611,-1.2581,-1.2618,-1.2638,-1.2622,-1.2765,-1.2725,-1.2743,-1.2793,-1.2934,-1.2942,-1.2948,-1.2991,-1.3006,-1.3017,0,0,0,0,0,0,-1.2385,-1.2429,-1.242,-1.2511,-1.2549,-1.2589,-1.2636,-1.2626,-1.2673,-1.2667,-1.2673,-1.2683,-1.2767,-1.2787,-1.2743,-1.2888,-1.2845,-1.2856,-1.2872,-1.2885,-1.2896,-1.289,-1.2705,0,0,0,0,0,-1.2403,-1.2458,-1.2493,-1.2571,-1.259,-1.261,-1.2641,-1.2643,-1.2682,-1.2698,-1.2724,-1.2763,-1.2817,-1.2852,-1.2903,-1.2999,-1.3009,-1.3042,-1.3052,-1.3061,-1.3071,-1.3124,-1.314,-1.2976,-1.2975,-1.2975,0,0,-1.2442,-1.2473,-1.2507,-1.2579,-1.2608,-1.2665,-1.2624,-1.2685,-1.2727,-1.2707,-1.2786,-1.2807,-1.285,-1.294,-1.298,-1.296,-1.3118,-1.307,-1.3077,-1.3082,-1.3133,-1.3149,-1.3162,-1.298,-1.2979,-1.2979,0,0,-1.2543,-1.2572,-1.264,-1.267,-1.2716,-1.2728,-1.2745,-1.2787,-1.28,-1.2879,-1.2865,-1.2916,-1.3007,-1.304,-1.3068,-1.3182,-1.3169,-1.3198,-1.3255,-1.3307,-1.332,-1.3331,-1.3373,-1.3388,-1.3207,-1.3207,-1.3208,0,-1.2587,-1.2672,-1.2676,-1.2739,-1.2772,-1.2756,-1.2825,-1.2855,-1.2914,-1.2937,-1.2913,-1.3029,-1.3057,-1.3154,-1.3182,-1.3205,-1.3224,-1.3193,-1.3317,-1.3329,-1.334,-1.338,-1.3395,-1.3211,-1.321,-1.321,-1.321,0,-1.2723,-1.2782,-1.2832,-1.2891,-1.2928,-1.2994,-1.3009,-1.3046,-1.3044,-1.306,-1.3141,-1.3174,-1.3232,-1.3255,-1.3253,-1.3352,-1.3338,-1.3316,-1.3273,-1.3359,-1.3397,-1.3412,-1.3216,-1.3214,-1.3213,-1.3213,0,0,-1.285,-1.2911,-1.2929,-1.2956,-1.3005,-1.3051,-1.3116,-1.3173,-1.3206,-1.3247,-1.3303,-1.3381,-1.3361,-1.3393,-1.3395,-1.3441,-1.353,-1.3413,-1.3414,-1.3435,-1.3642,-1.366,-1.3678,-1.3521,-1.3524,-1.3527,-1.3639,0,-1.2956,-1.3072,-1.3078,-1.3183,-1.3238,-1.3224,-1.3281,-1.3318,-1.3334,-1.3383,-1.3401,-1.3457,-1.3425,-1.3445,-1.3489,-1.351,-1.3572,-1.3502,-1.3574,-1.3577,-1.3565,-1.3697,-1.3716,-1.382,-1.3654,-1.3656,-1.3658,0,-1.3096,-1.3142,-1.3253,-1.3295,-1.3319,-1.337,-1.3423,-1.347,-1.3511,-1.352,-1.3556,-1.3552,-1.3619,-1.3573,-1.3667,-1.3619,-1.3648,-1.3663,-1.3667,-1.3675,-1.3623,-1.371,-1.3854,-1.387,-1.3681,-1.3679,-1.3678,0,-1.3179,-1.3269,-1.3347,-1.3371,-1.3421,-1.3458,-1.3481,-1.3519,-1.3553,-1.3599,-1.3622,-1.3675,-1.3705,-1.3746,-1.3757,-1.3722,-1.3851,-1.3805,-1.386,-1.386,-1.3889,-1.3887,-1.4041,-1.3906,-1.3906,-1.3905,-1.3905,0,-1.3298,-1.3366,-1.3386,-1.3434,-1.3511,-1.3517,-1.3593,-1.3613,-1.3647,-1.37,-1.369,-1.3739,-1.3749,-1.3801,-1.3809,-1.3886,-1.3899,-1.3908,-1.391,-1.391,-1.3909,-1.393,-1.3924,-1.391,-1.3909,-1.3908,-1.3907,0,-1.3404,-1.342,-1.3504,-1.3546,-1.3558,-1.3612,-1.3648,-1.3694,-1.3709,-1.3775,-1.3791,-1.3815,-1.3875,-1.3889,-1.396,-1.3966,-1.4057,-1.4051,-1.4044,-1.4044,-1.4099,-1.4094,-1.4273,-1.4297,-1.4145,-1.4146,-1.4148,0,-1.3479,-1.3532,-1.3579,-1.3614,-1.3638,-1.3694,-1.3729,-1.3737,-1.3774,-1.3825,-1.3866,-1.3925,-1.3972,-1.4069,-1.4093,-1.4147,-1.4143,-1.4202,-1.4151,-1.415,-1.4146,-1.4143,-1.4149,-1.4212,-1.4214,-1.4215,-1.4216,0,-1.3612,-1.3617,-1.3668,-1.3722,-1.3765,-1.3807,-1.3848,-1.3877,-1.3891,-1.3933,-1.3994,-1.4031,-1.4105,-1.4164,-1.4219,-1.4242,-1.4232,-1.4232,-1.4248,-1.4249,-1.4243,-1.4248,-1.4072,-1.4228,-1.4227,-1.4226,-1.4225,-1.4225,-1.3706,-1.3752,-1.3793,-1.3851,-1.3882,-1.3921,-1.3967,-1.3988,-1.404,-1.41,-1.4102,-1.4169,-1.4209,-1.4282,-1.4309,-1.4362,-1.4344,-1.4367,-1.4373,-1.4379,-1.4384,-1.4234,-1.4372,-1.4372,-1.4371,-1.4371,-1.4371,0,-1.3839,-1.3865,-1.3917,-1.3975,-1.4021,-1.4007,-1.4052,-1.4091,-1.415,-1.4189,-1.4236,-1.4307,-1.4365,-1.4393,-1.445,-1.4487,-1.4484,-1.4501,-1.4499,-1.4505,-1.4396,-1.4378,-1.4503,-1.4503,-1.4503,-1.4503,-1.4503,-1.4503,-1.3914,-1.3992,-1.4002,-1.4097,-1.4122,-1.4188,-1.4215,-1.4251,-1.4282,-1.4362,-1.441,-1.4428,-1.4463,-1.4522,-1.4574,-1.4581,-1.4603,-1.4623,-1.4628,-1.4526,-1.4513,-1.45,-1.4482,-1.4628,-1.4628,-1.4733,-1.4734,-1.4734]},{"header":{"parameterUnit":"m.s-1","parameterCategory":1,"la1":30.2991,"la2":30.254,"lo1":-89.0895,"lo2":-89.0444,"dy":0.0017,"dx":0.0017,"nx":28,"ny":28,"refTime":"2025-07-04T09:00:00:Z","depth":0,"parameterNumber":3,"parameterNumberName":"V-component_of_WINDS"},"data":[0,0,0,0,0,0,0,0,0,0,0,0,0,0,0,0,0,0,0,0,0,0,0,0,0,0,0,0,0,0,0,0,0,0,0,0,0,0,0,0,0,0,0,0,0,0,0,0,0,0,0,0,0,0,0,0,0,0,-3.0257,-3.0257,0,-3.027,-3.0271,-3.0271,-3.0218,-3.0216,-3.0215,-3.0213,-3.0225,-3.0227,-3.0229,0,0,0,0,0,0,0,0,0,0,0,0,0,-3.0183,-3.0184,-3.0257,-3.0257,-3.0257,-3.027,-3.0271,-3.0271,-3.0218,-3.0216,-3.0214,-3.0212,-3.0225,-3.0227,-3.0229,0,0,0,0,0,0,0,0,0,0,0,0,0,-3.0208,-3.0185,-3.0257,-3.0232,-3.023,-3.027,-3.0271,-3.0271,-3.0218,-3.0216,-3.0214,-3.0211,-3.0224,-3.0227,-3.0229,-3.0293,0,0,-3.0237,-3.0239,0,0,0,0,0,0,0,0,-3.0206,-3.021,-3.0236,-3.0234,-3.0232,-3.024,-3.0249,-3.0278,-3.0219,-3.0223,-3.0213,-3.021,-3.0232,-3.0234,-3.0241,-3.0293,-3.0294,-3.0238,-3.0239,-3.024,-3.0241,0,0,0,0,0,0,0,-3.0205,-3.0209,-3.0262,-3.0236,-3.0234,-3.022,-3.0221,-3.0254,-3.024,-3.0222,-3.0219,-3.0221,-3.023,-3.0239,-3.0241,-3.0294,-3.0238,-3.024,-3.0242,-3.0243,-3.0398,-3.04,0,0,0,0,0,0,-3.0206,-3.0208,-3.0262,-3.0263,-3.0213,-3.0223,-3.0224,-3.024,-3.024,-3.0238,-3.0223,-3.0218,-3.0236,-3.0238,-3.0242,-3.0316,-3.024,-3.0243,-3.0244,-3.0395,-3.0398,-3.0401,0,0,0,0,0,0,-3.0205,-3.0212,-3.0261,-3.0234,-3.024,-3.0227,-3.0245,-3.0241,-3.025,-3.024,-3.0237,-3.0235,-3.0234,-3.0238,-3.028,-3.0315,-3.0244,-3.0247,-3.0392,-3.0396,-3.04,-3.0465,0,0,0,0,0,0,-3.0203,-3.0211,-3.0236,-3.0235,-3.0241,-3.0301,-3.0247,-3.0243,-3.0255,-3.0249,-3.025,-3.0248,-3.0232,-3.0277,-3.0283,-3.0318,-3.0249,-3.0389,-3.0394,-3.0399,-3.0459,-3.047,-3.0479,0,0,0,0,0,-3.0201,-3.0253,-3.0238,-3.0244,-3.0272,-3.0303,-3.0306,-3.0287,-3.0258,-3.0282,-3.0276,-3.0248,-3.0311,-3.0282,-3.0288,-3.0324,-3.0387,-3.0393,-3.0398,-3.0455,-3.0468,-3.0479,0,0,0,0,0,0,-3.0258,-3.0253,-3.0235,-3.029,-3.0297,-3.0294,-3.0324,-3.0302,-3.0317,-3.0311,-3.0286,-3.0287,-3.0334,-3.0333,-3.0301,-3.0385,-3.0344,-3.0351,-3.0384,-3.0397,-3.0407,-3.0406,-3.0251,0,0,0,0,0,-3.0277,-3.0303,-3.0297,-3.0346,-3.035,-3.0337,-3.0349,-3.0334,-3.034,-3.0343,-3.034,-3.0347,-3.0368,-3.0382,-3.0401,-3.0459,-3.0458,-3.0487,-3.0497,-3.0505,-3.0512,-3.0542,-3.0555,-3.042,-3.042,-3.042,0,0,-3.0317,-3.0317,-3.0335,-3.0357,-3.0361,-3.0388,-3.034,-3.037,-3.039,-3.0347,-3.0388,-3.0386,-3.0392,-3.0442,-3.0464,-3.0443,-3.0549,-3.0512,-3.0519,-3.0521,-3.0549,-3.0562,-3.0573,-3.0424,-3.0423,-3.0422,0,0,-3.0402,-3.0406,-3.0446,-3.0451,-3.0458,-3.0448,-3.0458,-3.0458,-3.0455,-3.0495,-3.0464,-3.0487,-3.0524,-3.0529,-3.0537,-3.0624,-3.0599,-3.0631,-3.0683,-3.0713,-3.0724,-3.0733,-3.0764,-3.0775,-3.0637,-3.0637,-3.0638,0,-3.045,-3.049,-3.047,-3.0502,-3.0513,-3.0476,-3.0517,-3.0522,-3.0535,-3.0543,-3.0519,-3.0564,-3.0565,-3.0617,-3.0638,-3.0645,-3.0655,-3.063,-3.0724,-3.0733,-3.0741,-3.077,-3.0782,-3.0641,-3.0641,-3.064,-3.064,0,-3.0549,-3.0577,-3.0609,-3.0623,-3.0636,-3.0673,-3.0657,-3.0673,-3.0657,-3.065,-3.069,-3.0691,-3.0709,-3.072,-3.0704,-3.0769,-3.0755,-3.0728,-3.0686,-3.0758,-3.0785,-3.0796,-3.0647,-3.0645,-3.0644,-3.0643,0,0,-3.0672,-3.0673,-3.0685,-3.0691,-3.0695,-3.0716,-3.0751,-3.0769,-3.0783,-3.0793,-3.0821,-3.0853,-3.0827,-3.0836,-3.082,-3.0846,-3.0915,-3.0816,-3.0815,-3.0834,-3.0986,-3.1007,-3.102,-3.0899,-3.0901,-3.0902,-3.0986,0,-3.0756,-3.0815,-3.0797,-3.0857,-3.0883,-3.0848,-3.0878,-3.0884,-3.0878,-3.0898,-3.0891,-3.0914,-3.0879,-3.0884,-3.0908,-3.0902,-3.0945,-3.0895,-3.0924,-3.0925,-3.0924,-3.1034,-3.1056,-3.1134,-3.0996,-3.0998,-3.0999,0,-3.0862,-3.0876,-3.0939,-3.0939,-3.0949,-3.0976,-3.0991,-3.1011,-3.1016,-3.101,-3.102,-3.0998,-3.1031,-3.0989,-3.1034,-3.1,-3.1011,-3.1009,-3.1012,-3.1014,-3.0967,-3.1039,-3.1159,-3.1171,-3.1016,-3.1014,-3.1013,0,-3.0945,-3.098,-3.1022,-3.1027,-3.1028,-3.1048,-3.1049,-3.1053,-3.1065,-3.1077,-3.1085,-3.1101,-3.111,-3.1123,-3.1106,-3.1077,-3.1154,-3.111,-3.1149,-3.115,-3.1167,-3.1166,-3.129,-3.1174,-3.1174,-3.1174,-3.1173,0,-3.1041,-3.1081,-3.1059,-3.1085,-3.1128,-3.1106,-3.1149,-3.1146,-3.1149,-3.1173,-3.1144,-3.1167,-3.1144,-3.1165,-3.1152,-3.1191,-3.1195,-3.119,-3.1187,-3.1193,-3.1194,-3.12,-3.1194,-3.1177,-3.1176,-3.1175,-3.1175,0,-3.1141,-3.1128,-3.1172,-3.1169,-3.1169,-3.1201,-3.1198,-3.1222,-3.1213,-3.1244,-3.125,-3.1237,-3.126,-3.1245,-3.1267,-3.1259,-3.131,-3.1298,-3.1308,-3.1305,-3.1345,-3.1342,-3.1478,-3.1494,-3.1367,-3.1369,-3.137,0,-3.1203,-3.1233,-3.1234,-3.1248,-3.1251,-3.1274,-3.1286,-3.1266,-3.128,-3.1288,-3.131,-3.133,-3.1346,-3.1384,-3.1376,-3.1393,-3.1382,-3.1428,-3.1384,-3.139,-3.1382,-3.1381,-3.1383,-3.1437,-3.1439,-3.144,-3.1441,0,-3.1315,-3.1307,-3.1326,-3.1342,-3.1358,-3.137,-3.1379,-3.1392,-3.1372,-3.1388,-3.1411,-3.1423,-3.1447,-3.1467,-3.1481,-3.1482,-3.1458,-3.1455,-3.1465,-3.1472,-3.1476,-3.1474,-3.1333,-3.1452,-3.1451,-3.145,-3.1449,-3.1449,-3.1398,-3.1422,-3.1427,-3.1448,-3.1453,-3.1463,-3.1484,-3.1479,-3.1498,-3.1516,-3.1502,-3.153,-3.1534,-3.155,-3.1554,-3.1575,-3.1556,-3.157,-3.1574,-3.1578,-3.1583,-3.1473,-3.1577,-3.1577,-3.1576,-3.1576,-3.1576,0,-3.1508,-3.1508,-3.1529,-3.1543,-3.156,-3.1536,-3.1545,-3.1561,-3.1586,-3.1592,-3.1607,-3.1634,-3.1653,-3.1647,-3.1664,-3.1682,-3.1672,-3.1688,-3.1686,-3.1686,-3.1599,-3.1589,-3.1696,-3.1696,-3.1696,-3.1696,-3.1696,-3.1696,-3.1567,-3.1607,-3.16,-3.1642,-3.1642,-3.1669,-3.1676,-3.1684,-3.1689,-3.172,-3.1736,-3.1732,-3.1733,-3.175,-3.1767,-3.1764,-3.1772,-3.1792,-3.1786,-3.1704,-3.1693,-3.1681,-3.1671,-3.1794,-3.1794,-3.1871,-3.1872,-3.1872]}]]